Lapse_Rate
5.9 5.8 5.9 5.8 5.7 5.6 5.8 6.0 6.1 6.0 6.1 6.2 6.2 6.3 6.5 6.7 6.8 6.9 6.9 6.9 6.7 6.6 6.5 6.5 6.7 6.8 6.9 7.1 7.3 7.3 7.3 7.2 7.6 8.1 8.3 7.7 7.7 7.8 8.1 8.1 8.2 7.6 7.1 6.4 6.5
6.0 6.0 6.0 5.8 5.7 5.5 5.6 5.8 5.9 5.9 6.0 6.1 6.3 6.3 6.5 6.6 6.7 6.8 6.9 6.8 6.7 6.5 6.4 6.5 6.7 6.8 6.9 7.1 7.3 7.4 7.1 6.8 7.4 7.7 8.0 7.8 7.4 8.1 8.4 8.5 8.1 7.4 6.8 6.5 6.4
6.1 6.0 6.0 5.9 5.9 5.8 5.6 5.7 5.8 5.9 5.8 6.0 6.1 6.4 6.5 6.6 6.4 6.6 6.8 6.8 6.6 6.5 6.4 6.5 6.5 6.7 6.9 7.2 7.3 7.2 7.1 6.6 7.3 7.6 7.8 7.6 7.3 8.0 8.5 8.8 8.2 7.7 7.0 6.6 6.8
6.1 6.0 5.9 5.9 6.0 5.9 5.8 5.8 6.0 5.8 5.9 5.9 6.0 6.3 6.5 6.5 6.3 6.4 6.7 6.7 6.6 6.5 6.5 6.6 6.6 6.8 7.0 7.2 7.1 7.2 6.9 6.8 7.3 7.5 7.2 7.3 7.4 7.8 8.2 8.5 8.2 7.7 7.3 7.0 6.7
6.1 6.1 6.1 6.1 6.0 6.0 6.0 6.1 6.1 6.0 6.1 5.9 6.1 6.2 6.4 6.5 6.3 6.5 6.5 6.7 6.6 6.6 6.5 6.5 6.6 6.7 6.7 6.7 7.0 7.0 7.2 7.2 7.5 7.8 7.9 7.5 7.5 8.1 8.4 8.4 8.4 7.8 7.4 7.1 6.7
6.0 6.0 6.0 6.0 6.0 6.0 6.0 6.2 6.1 6.0 6.0 5.9 6.2 6.3 6.3 6.6 6.7 6.5 6.5 6.7 6.5 6.5 6.5 6.4 5.9 6.2 6.4 6.7 7.1 7.4 7.7 7.9 7.9 8.1 8.3 7.6 7.7 8.1 8.4 8.4 8.4 8.0 7.6 7.3 7.1
6.0 6.0 5.9 5.9 6.0 6.0 5.9 6.3 6.2 6.1 6.0 6.0 6.0 6.2 6.4 6.6 6.6 6.5 6.6 6.7 6.7 6.5 6.4 6.0 5.9 6.3 6.3 6.7 7.3 7.6 8.0 8.1 8.4 8.6 8.2 7.3 7.8 8.4 8.4 8.5 8.4 8.1 7.7 7.5 7.4
6.0 6.0 5.9 5.9 5.9 5.9 5.9 6.2 6.1 6.2 6.1 6.1 6.0 6.2 6.5 6.6 6.5 6.4 6.5 6.6 6.7 6.6 6.2 6.0 6.0 6.2 6.8 6.9 7.7 8.1 8.2 8.2 8.5 8.4 8.1 7.4 8.1 8.2 8.3 8.3 8.6 8.3 7.9 8.0 7.5
5.9 5.9 5.9 5.8 5.9 6.0 6.0 6.1 6.1 6.2 6.2 6.1 6.0 6.2 6.5 6.6 6.7 6.6 6.5 6.6 6.6 6.4 6.1 6.1 6.2 6.4 7.0 7.3 7.8 8.2 8.6 8.4 8.5 8.3 7.9 7.4 7.8 8.1 8.3 8.3 8.5 8.5 8.2 8.1 8.0
6.0 5.9 5.9 5.8 5.9 6.0 6.2 6.0 6.2 6.3 6.3 6.3 6.2 6.2 6.6 6.8 6.8 6.7 6.7 6.7 6.7 6.4 6.3 6.1 6.3 6.5 7.0 7.5 7.7 8.2 8.6 8.4 8.3 8.0 7.6 7.6 8.0 8.4 8.5 8.7 8.5 8.5 8.4 8.5 8.5
6.0 6.0 6.0 5.9 6.0 6.0 6.3 6.2 6.2 6.4 6.4 6.4 6.3 6.3 6.3 6.6 6.8 6.7 6.9 6.6 6.6 6.7 6.4 6.4 6.4 6.6 7.1 7.3 7.7 8.3 8.6 8.6 8.4 8.3 8.1 8.0 8.0 7.9 8.3 8.5 8.5 8.4 8.4 8.4 8.4
5.9 6.0 6.1 5.9 6.0 6.1 6.4 6.3 6.3 6.2 7.0 6.4 6.5 6.4 6.4 6.5 6.8 6.7 6.9 6.9 6.6 6.7 6.6 6.6 6.6 6.7 6.8 7.0 7.5 7.7 8.0 8.5 8.6 8.6 8.4 8.4 8.3 8.2 8.1 8.8 8.9 9.1 8.8 8.5 8.3
6.0 6.0 6.1 6.0 6.1 6.2 6.5 6.3 6.3 6.3 6.7 7.1 7.1 6.8 6.4 6.3 6.8 7.1 7.0 6.8 6.7 6.7 6.8 6.7 6.9 6.8 6.8 6.8 7.0 7.4 7.6 8.3 8.4 8.4 8.5 8.7 8.6 8.9 9.0 8.8 8.3 8.7 8.6 8.4 8.3
6.0 6.1 6.2 6.1 6.1 6.4 6.5 6.4 6.4 6.5 6.6 7.3 7.3 7.1 6.8 6.6 6.9 6.9 7.1 7.0 6.9 6.8 6.9 6.8 7.0 7.0 6.8 6.9 6.9 7.2 7.7 7.9 8.0 8.4 8.6 8.6 8.3 8.7 8.9 8.7 8.5 8.7 8.8 8.8 8.6
6.2 6.2 6.2 6.4 6.2 6.4 6.5 6.4 6.4 6.5 5.8 7.5 7.4 7.2 7.1 6.9 7.2 6.9 7.0 6.9 7.2 6.9 6.9 7.1 7.0 7.1 6.9 7.1 7.1 7.2 7.6 7.8 8.0 8.2 8.3 8.5 8.2 8.4 8.5 8.5 8.5 8.8 9.2 9.0 9.1
6.2 6.3 6.3 6.4 6.1 6.5 6.6 6.5 6.5 6.6 6.5 7.7 7.5 7.5 7.3 7.1 7.0 7.0 7.1 7.1 7.1 7.0 6.9 7.1 7.0 6.9 7.1 7.1 7.0 7.0 7.2 7.6 8.0 8.1 7.1 8.5 8.5 8.1 8.3 8.6 8.7 8.9 9.3 9.2 9.0
6.2 6.3 6.5 6.5 6.1 6.5 6.6 6.5 6.6 6.6 7.5 7.7 7.7 7.7 7.6 7.3 7.3 7.3 7.4 7.4 7.4 7.4 7.5 7.5 7.5 7.3 7.3 7.3 7.5 7.5 7.5 7.5 7.3 6.8 6.4 8.4 8.2 8.4 8.6 8.8 8.7 8.9 9.2 9.4 9.3
6.2 6.3 6.4 6.2 6.3 6.7 6.7 6.5 6.7 7.4 7.5 7.7 7.9 8.0 7.9 7.7 7.5 7.5 7.6 7.7 7.8 7.8 7.6 7.5 7.8 7.6 7.7 7.6 7.7 7.6 7.7 7.7 6.9 6.2 7.1 7.5 7.8 8.8 8.8 9.1 9.0 9.0 9.4 9.4 9.2
6.4 6.3 6.4 6.6 6.8 6.8 6.6 6.3 7.4 7.6 7.5 7.8 7.9 8.0 7.9 8.0 7.8 7.8 7.8 7.7 8.2 8.1 7.9 7.8 7.8 7.7 7.5 7.4 7.7 7.9 8.0 8.1 8.0 7.5 7.1 8.0 8.3 8.5 8.7 8.7 8.9 8.8 9.1 9.5 9.5
6.3 6.2 6.4 6.8 7.0 6.9 6.4 6.8 7.3 7.7 7.8 7.8 7.8 7.9 8.0 8.1 8.2 8.3 7.9 7.8 8.3 8.5 8.2 8.1 7.9 7.9 7.7 7.6 7.8 8.0 8.1 8.2 8.1 7.2 6.7 7.6 7.8 8.6 8.9 9.0 9.1 8.9 8.9 9.1 9.1
6.2 6.2 6.4 6.6 6.7 6.5 6.4 6.8 7.2 7.6 7.9 8.0 8.1 8.0 8.0 8.2 8.2 8.0 7.9 8.1 8.3 8.2 8.2 8.1 8.0 8.1 8.0 7.9 7.7 7.8 7.9 8.2 8.1 8.1 6.7 6.2 7.7 8.7 9.0 9.0 9.2 9.1 8.9 8.8 9.0
6.2 6.0 6.2 6.2 6.2 6.2 6.6 6.7 7.0 7.2 7.7 7.8 8.0 8.1 8.2 8.1 8.2 8.2 8.2 8.1 8.1 8.4 8.3 8.3 8.2 8.1 8.2 8.2 7.8 7.7 7.9 8.0 8.2 7.9 8.1 7.8 8.0 9.0 9.2 9.1 9.0 9.0 8.9 8.7 8.8
6.2 5.7 6.1 6.1 6.1 6.2 6.4 6.4 6.4 6.8 7.4 7.4 7.9 8.0 7.9 8.2 8.4 8.4 8.3 8.2 8.3 8.2 8.1 8.0 8.3 8.0 8.4 8.6 7.9 7.9 8.0 8.0 8.1 8.0 7.9 7.5 8.2 9.1 9.2 9.1 9.1 9.1 8.9 8.8 8.6
6.2 5.9 5.9 6.0 5.8 5.6 5.9 5.9 6.0 6.5 7.0 7.3 7.7 7.8 7.9 8.0 8.2 8.2 8.2 8.2 8.4 8.4 8.1 8.1 8.1 8.0 8.0 8.3 8.2 8.1 8.1 8.0 8.0 7.8 8.1 8.2 8.6 9.2 9.2 9.0 9.0 9.0 8.8 8.7 8.6
6.4 6.1 6.0 5.8 5.7 5.7 5.7 5.8 6.2 6.7 7.2 7.2 7.3 7.6 7.7 7.9 8.1 8.2 8.1 7.8 7.9 8.1 8.1 7.8 7.8 7.9 7.8 7.8 8.0 8.0 8.0 8.1 8.2 8.1 8.1 8.5 8.6 8.9 9.0 9.1 8.8 8.7 8.5 8.3 8.1
6.5 6.3 6.1 6.0 5.7 5.9 5.9 6.1 6.2 6.5 6.7 7.0 7.5 7.8 7.8 7.9 8.1 8.1 7.8 7.6 7.5 7.5 7.8 7.9 7.6 7.5 7.8 7.8 7.8 8.0 8.1 8.1 8.3 8.3 8.4 8.5 8.6 8.6 8.4 8.5 8.6 8.6 8.5 8.4 8.3
6.5 6.4 6.2 6.0 5.9 6.1 6.1 6.2 6.5 6.7 7.2 7.3 7.3 7.8 7.7 7.7 7.8 7.8 7.6 7.6 7.3 7.3 7.4 7.5 7.6 7.7 7.4 7.4 7.3 7.6 8.1 8.4 8.4 8.5 8.7 8.7 8.7 8.8 8.8 8.7 8.5 8.2 8.2 8.1 7.8
Wind_Speed
19 20 21 22 23 24 23 22 24 20 20 19 20 19 17 14 11 3 5 8 6 8 6 7 3 3 3 2 2 4 4 1 4 5 3 6 4 3 4 8 2 2 5 8 15
19 20 21 23 24 24 26 25 23 23 20 19 18 17 14 11 1 5 8 7 6 16 6 7 5 5 3 2 1 4 3 6 5 5 4 7 5 8 4 5 1 5 8 17 16
20 22 23 24 24 25 26 26 25 23 20 19 17 15 12 6 3 2 9 10 10 8 5 3 5 4 3 3 4 3 5 3 6 2 10 6 4 2 8 4 7 14 15 17 16
20 22 23 25 25 25 25 26 27 26 21 18 16 12 9 2 1 3 9 12 13 9 5 5 4 4 4 5 4 3 6 5 5 7 7 10 8 4 7 5 6 10 18 15 16
20 22 24 26 28 29 28 26 27 27 20 15 12 8 3 4 6 3 13 13 8 5 4 4 3 4 4 4 4 4 4 4 5 6 9 12 7 5 12 3 14 12 13 14 15
19 22 25 26 28 30 32 29 27 27 19 10 6 3 2 3 2 8 8 6 5 4 4 5 5 6 3 3 4 7 5 6 2 6 8 9 4 7 9 7 12 15 14 13 15
20 22 25 27 29 31 32 31 27 25 13 3 3 1 1 9 2 8 7 5 7 4 5 4 3 2 3 2 3 1 3 4 5 3 5 11 1 8 3 8 13 13 14 13 14
21 23 26 29 30 32 35 32 26 15 4 5 5 0 6 2 5 6 4 2 3 5 2 3 4 1 3 1 5 3 5 4 3 2 4 7 15 3 8 12 14 12 11 13 14
21 23 26 29 31 34 38 31 17 4 5 7 1 1 7 2 1 3 5 3 5 3 3 1 1 2 4 4 4 7 3 2 2 1 5 4 4 7 8 10 13 12 11 12 11
19 22 26 29 31 34 37 25 3 2 3 3 3 3 3 1 5 2 4 1 3 1 2 2 4 3 4 4 5 4 5 2 1 1 3 4 6 3 14 14 16 13 10 10 9
19 22 26 30 33 33 13 4 7 6 7 6 7 5 7 7 3 2 4 5 1 6 2 3 4 3 5 0 2 4 4 4 4 3 6 10 9 9 14 11 11 12 12 11 12
20 23 25 29 33 24 4 6 5 5 11 9 16 10 7 4 4 2 6 5 3 3 2 5 2 6 2 2 1 0 2 3 2 4 4 8 14 4 13 22 21 19 16 17 13
20 22 24 33 32 5 4 8 3 3 3 7 5 5 4 9 7 6 6 4 3 4 3 5 4 5 2 1 2 2 3 3 6 4 4 7 4 4 9 7 10 8 11 10 14
19 20 22 36 5 6 4 2 5 6 4 7 4 4 4 6 3 6 5 5 2 7 7 4 3 1 2 4 6 2 7 5 4 3 3 1 4 6 5 12 8 15 12 13 12
18 18 17 9 4 4 6 15 9 2 4 3 0 2 2 6 4 4 3 4 7 5 5 6 2 3 1 4 6 7 6 6 4 4 4 2 4 7 0 6 14 16 19 16 15
18 16 16 2 2 7 16 10 2 5 5 6 2 1 4 2 1 3 3 5 4 5 1 6 2 2 6 5 7 3 3 6 4 4 1 6 7 5 5 8 10 21 18 16 15
19 20 9 3 4 1 8 4 4 3 5 6 3 4 1 1 1 2 5 5 5 3 2 3 4 3 4 2 2 3 6 3 3 3 5 1 5 8 7 9 14 19 21 20 17
22 24 5 7 1 3 3 4 3 3 6 5 5 5 3 3 3 1 5 3 1 5 2 1 6 3 2 4 4 3 6 5 5 4 4 2 5 6 6 6 9 13 17 9 14
19 3 4 3 6 2 4 2 7 6 2 6 6 6 6 5 3 4 4 2 3 6 6 2 4 4 2 1 4 1 2 2 5 2 2 4 7 9 5 7 6 9 7 11 14
3 4 4 3 11 3 4 5 4 3 4 3 3 2 3 5 4 4 3 3 4 2 2 7 3 2 4 2 3 3 4 1 3 2 4 5 4 5 5 9 7 7 7 9 10
3 4 3 9 2 4 4 6 5 6 3 1 1 3 2 2 2 2 3 1 3 5 3 3 3 6 1 2 4 4 4 4 4 5 4 3 6 7 8 6 9 6 6 5 10
2 2 2 2 3 1 3 5 3 3 2 2 1 4 3 2 2 3 3 1 7 2 3 3 4 2 8 3 2 3 5 4 4 4 3 3 6 4 6 6 4 6 3 5 11
2 2 3 3 1 2 4 3 2 2 3 1 3 4 2 2 3 2 3 1 8 5 2 1 3 3 8 5 4 1 3 2 3 3 5 4 6 5 3 1 1 4 4 6 8
2 1 3 2 1 2 3 3 3 2 5 4 4 2 2 1 3 4 2 2 4 4 8 4 3 4 5 5 1 5 5 3 4 2 3 5 6 4 1 3 4 4 4 7 7
2 3 2 1 2 2 3 2 2 3 4 5 2 5 4 3 2 3 2 1 2 4 3 3 3 1 5 8 4 5 7 8 5 6 5 5 5 6 6 5 3 3 3 7 9
3 2 2 1 3 2 2 2 3 3 4 4 3 1 6 6 7 6 5 2 3 4 3 3 1 2 4 4 4 5 8 8 5 2 4 1 2 4 2 4 5 5 5 6 8
1 1 2 1 2 2 2 3 5 3 5 3 1 2 5 3 1 2 4 4 3 4 2 2 3 2 4 5 8 6 4 4 3 1 1 6 8 5 4 5 4 7 7 8 8
Wind_Direction
343 342 338 336 336 331 327 325 323 321 320 320 317 317 322 322 313 143 237 213 181 171 141 116 94 127 91 108 127 132 59 285 247 164 209 143 127 107 107 135 186 122 133 136 130
343 340 338 332 333 326 325 322 321 316 317 316 315 317 322 325 292 238 247 178 174 141 102 131 143 132 80 129 62 91 105 227 223 191 187 147 133 146 111 163 136 73 85 126 136
339 338 335 329 328 327 321 321 320 315 318 314 313 316 318 315 318 349 165 172 160 151 131 129 116 121 122 147 167 151 177 210 281 230 130 122 100 137 124 243 212 163 151 147 151
336 335 329 326 326 321 319 321 319 316 318 313 313 314 314 260 137 35 145 162 175 139 114 111 89 108 133 162 162 134 248 176 274 155 129 156 136 150 170 238 149 156 152 152 164
331 330 328 327 326 324 324 322 318 317 321 313 308 314 298 354 256 64 120 122 125 121 151 134 128 140 169 179 137 157 256 195 198 218 154 128 158 178 214 347 113 129 150 169 177
329 329 329 328 327 326 323 322 319 317 320 306 293 304 289 314 92 137 125 124 136 125 148 157 191 200 167 200 158 192 241 284 159 192 152 130 154 128 233 141 127 149 174 182 187
333 332 332 330 328 326 322 322 322 322 316 277 188 215 168 239 26 151 145 172 161 171 155 214 193 111 127 200 211 212 296 14 16 74 127 102 83 228 158 158 156 169 180 188 203
335 334 334 331 330 326 323 321 322 330 40 131 156 318 249 262 83 127 176 195 168 217 249 170 177 236 170 299 25 92 54 41 317 155 152 131 220 176 146 159 184 187 185 189 204
334 333 333 332 331 328 322 320 321 26 111 135 102 90 276 308 270 207 165 172 155 203 242 263 120 76 10 96 27 4 118 56 114 312 137 144 236 170 162 176 193 196 202 204 203
333 333 334 332 331 329 321 316 123 25 193 210 257 8 303 283 290 229 168 184 95 198 97 104 55 70 31 65 195 170 110 54 120 204 184 197 252 194 178 181 198 193 209 216 216
334 337 336 334 331 329 338 18 12 352 27 244 266 268 276 275 273 254 134 110 94 50 100 9 76 193 220 308 64 115 114 141 266 248 135 217 245 207 196 200 202 205 205 213 224
336 339 339 334 329 331 336 77 83 252 304 240 240 245 239 58 292 289 127 126 124 169 128 26 196 224 138 144 130 7 142 255 218 235 144 228 241 257 191 208 204 201 205 215 213
336 342 343 334 325 36 337 129 148 131 250 304 219 211 200 142 204 248 128 132 136 166 143 158 205 109 136 68 146 218 197 188 218 176 232 141 261 240 238 255 215 214 222 224 216
334 345 350 335 66 326 301 278 291 184 25 280 285 283 114 149 243 204 169 136 95 197 156 223 278 190 112 255 148 224 207 215 226 73 222 66 265 293 252 229 224 221 211 212 210
332 345 355 6 294 329 286 325 319 96 356 267 222 116 131 164 170 217 194 68 175 177 117 249 159 127 137 225 163 221 155 186 193 165 112 312 104 268 60 247 232 231 224 213 205
328 339 350 6 311 248 310 307 57 45 259 316 61 164 132 265 240 101 128 68 139 132 353 232 244 229 209 195 188 244 134 52 52 93 70 224 157 268 196 212 233 236 232 220 208
325 324 315 239 244 353 334 7 51 150 323 316 340 357 260 171 217 110 145 157 160 112 319 309 235 248 175 204 307 91 66 334 355 9 218 137 106 231 241 242 230 235 230 213 200
325 316 256 222 295 321 40 49 154 242 267 314 354 343 100 7 36 62 103 173 210 92 111 167 340 215 167 175 169 170 146 157 204 197 256 92 223 250 212 253 277 253 247 206 196
328 333 287 270 199 140 89 104 202 210 306 329 326 50 10 8 92 78 69 348 233 175 162 142 282 306 254 325 121 136 166 199 112 19 67 248 290 309 243 264 295 288 212 186 186
347 348 275 343 150 82 86 232 240 228 328 353 30 21 35 357 46 68 22 297 337 180 285 209 311 261 282 32 331 168 169 61 10 201 247 284 270 232 270 250 259 249 182 177 170
52 357 267 135 83 44 169 225 260 257 260 14 336 328 304 17 44 67 348 266 29 331 148 124 124 284 336 177 193 19 335 57 120 150 194 235 260 220 234 251 269 256 308 147 119
85 342 305 80 70 15 178 202 240 280 310 298 197 231 247 212 38 87 114 304 347 289 54 338 143 233 233 275 335 140 229 151 128 255 235 184 269 321 278 257 230 266 93 96 110
128 252 313 103 142 265 267 271 275 286 251 329 272 208 188 257 100 90 127 226 7 40 54 77 16 17 343 6 20 158 192 169 99 73 219 184 266 345 44 80 289 216 133 127 122
105 8 310 68 194 215 209 253 260 249 258 216 245 218 214 214 7 145 127 350 7 49 43 88 96 143 197 241 259 293 290 223 142 121 256 231 295 303 315 1 4 63 69 97 96
71 236 193 228 282 235 236 302 271 306 236 195 228 216 191 138 75 108 101 97 31 12 44 82 97 292 250 253 246 250 259 282 214 226 178 266 224 278 264 169 157 106 85 98 98
142 149 350 264 304 265 165 258 253 260 229 259 207 189 178 153 182 183 136 176 209 40 60 2 173 149 276 290 298 276 282 269 245 145 137 273 290 222 268 100 110 99 92 85 89
199 342 108 289 323 122 214 275 256 326 256 283 311 118 79 30 232 63 110 114 105 133 109 71 114 52 294 338 328 311 249 286 295 335 209 183 224 160 150 150 146 135 135 107 69